Regional Weather Roundup
Issued by NWS

Home | Current Version | Previous Version | Graphics & Text | Print | Product List | Glossary On
Versions: 1 2 3 4 5 6 7 8 9 10 11 12 13 14 15 16 17 18 19 20 21 22 23 24 25 26 27 28 29 30 31 32 33 34 35 36 37 38 39 40 41 42 43 44 45 46 47 48 49 50
000
ASUS45 KPSR 290610
RWRAZ

ARIZONA HOURLY REGIONAL WEATHER ROUNDUP
NATIONAL WEATHER SERVICE PHOENIX AZ
1100 PM MST THU JUL 28 2016

NOTE: FAIR INDICATES FEW OR NO CLOUDS BELOW 12,000 FEET WITH NO
SIGNIFICANT WEATHER AND/OR OBSTRUCTIONS TO VISIBILITY.

AZZ001>003-036-290700-
NORTHWEST ARIZONA

CITY           SKY/WX    TMP DP  RH WIND       PRES   REMARKS
BULLHEAD CITY  PTCLDY   104  52  17 N12G17    29.74F HX 101
KINGMAN        MOCLDY    85  47  26 VRB3      29.98S
6HR MIN TEMP:  82; 6HR MAX TEMP: 103; 6HR PCP:  0.01;

$$

AZZ004>008-015-016-018-290700-
NORTH CENTRAL ARIZONA

CITY           SKY/WX    TMP DP  RH WIND       PRES   REMARKS
GRAND CANYON   CLEAR     61  51  70 E3        30.29R
6HR MIN TEMP:  59; 6HR MAX TEMP:  87;

WILLIAMS       MOCLDY    68  45  42 S7        30.37F
PRESCOTT       CLOUDY    76  53  44 S3        30.13F
6HR MIN TEMP:  75; 6HR MAX TEMP:  86;

FLAGSTAFF      MOCLDY    71  41  33 N6        30.30F
6HR MIN TEMP:  70; 6HR MAX TEMP:  83;

PAYSON         CLOUDY    77  54  44 S5        30.16F
PAGE           CLEAR     91  39  16 NW6       30.01R
6HR MIN TEMP:  90; 6HR MAX TEMP: 105;

$$

AZZ009>014-017-290700-
NORTHEAST ARIZONA

CITY           SKY/WX    TMP DP  RH WIND       PRES   REMARKS
WINSLOW        MOCLDY    81  49  32 SW10      30.08F
6HR MIN TEMP:  81; 6HR MAX TEMP: 103; 6HR PCP: TRACE;

SAINT JOHNS    PTCLDY    71  45  39 SW6       30.18R
6HR MIN TEMP:  70; 6HR MAX TEMP:  94; 6HR PCP: TRACE;

WINDOW ROCK    PTCLDY    74  43  32 CALM      30.26S
6HR MIN TEMP:  71; 6HR MAX TEMP:  87;

SHOW LOW       PTCLDY    66  41  39 CALM      30.27R
$$

AZZ023-290700-
GREATER PHOENIX AREA

CITY           SKY/WX    TMP DP  RH WIND       PRES   REMARKS
PHOENIX        PTCLDY   101  57  23 E12       29.74R HX 100
6HR MIN TEMP: 101; 6HR MAX TEMP: 110;

BUCKEYE        CLEAR     99  61  28 SW6       29.75R
LUKE AFB       PTCLDY    99  57  24 N2        29.73R
6HR MIN TEMP:  99; 6HR MAX TEMP: 112;

DEER VALLEY    PTCLDY   101  51  18 E7        29.77S
6HR MIN TEMP: 100; 6HR MAX TEMP: 109;

SCOTTSDALE     PTCLDY   102  50  17 NE6       29.78S
6HR MIN TEMP: 102; 6HR MAX TEMP: 109;

MESA-GATEWAY   PTCLDY    97  55  24 CALM      29.78S
$$

AZZ027-028-290700-
SOUTHWEST MARICOPA COUNTY AND PINAL COUNTY

CITY           SKY/WX    TMP DP  RH WIND       PRES   REMARKS
CASA GRANDE    CLEAR     97  55  24 NW6       29.81R
6HR MIN TEMP:  97; 6HR MAX TEMP: 109;

GILA BEND      PTCLDY   100  62  28 SW10      29.74R HX 100
6HR MIN TEMP: 100; 6HR MAX TEMP: 113;

$$

AZZ503-504-507>509-290700-
SOUTHEAST ARIZONA

CITY           SKY/WX    TMP DP  RH WIND       PRES   REMARKS
TUCSON         PTCLDY    93  59  31 NW3       29.90R
6HR MIN TEMP:  93; 6HR MAX TEMP: 105;

DAVIS-MONTHAN  MOCLDY    90  65  44 E6        29.89R
6HR MIN TEMP:  90; 6HR MAX TEMP: 102;

NOGALES        PTCLDY    78  62  57 S5        30.03R
6HR MIN TEMP:  78; 6HR MAX TEMP:  97;

SIERRA VISTA   PTCLDY    81  54  40 W9        30.10R
6HR MIN TEMP:  79; 6HR MAX TEMP:  94;

DOUGLAS        MOCLDY    76  63  64 E6        30.04S
6HR MIN TEMP:  75; 6HR MAX TEMP:  96;

SAFFORD        CLEAR     84  53  34 N8        29.92S
6HR MIN TEMP:  83; 6HR MAX TEMP: 101;

$$

AZZ020-021-025-026-031-290700-
SOUTHWEST ARIZONA

CITY           SKY/WX    TMP DP  RH WIND       PRES   REMARKS
YUMA           PTCLDY    93  64  38 SW8       29.72R
6HR MIN TEMP:  93; 6HR MAX TEMP: 107;

$$

CAZ031-033-041-043-047-048-061-290700-
SOUTHERN CALIFORNIA

CITY           SKY/WX    TMP DP  RH WIND       PRES   REMARKS
DOWNTOWN L.A.  CLEAR     72  61  68 CALM      29.84F
6HR MIN TEMP:  72; 6HR MAX TEMP:  83;

L.A. AIRPORT   CLEAR     71  63  75 W8        29.84F
6HR MIN TEMP:  70; 6HR MAX TEMP:  77;

SAN DIEGO      PTCLDY    71  65  81 NW7       29.86F
6HR MIN TEMP:  70; 6HR MAX TEMP:  78;

BURBANK        CLEAR     77  61  57 CALM      29.85F
6HR MIN TEMP:  77; 6HR MAX TEMP:  90;

ONTARIO        CLEAR     79  54  41 SW7       29.86S
6HR MIN TEMP:  79; 6HR MAX TEMP:  97;

RIVERSIDE      CLEAR     80  50  34 W3        29.86S
6HR MIN TEMP:  80; 6HR MAX TEMP:  99;

PALM SPRINGS   CLEAR    100  52  19 NW8       29.76R
6HR MIN TEMP: 100; 6HR MAX TEMP: 113;

EL CENTRO NAS  CLEAR     94  65  38 E3        29.70R
6HR MIN TEMP:  94; 6HR MAX TEMP: 113;

IMPERIAL       CLEAR     98  66  34 NE6       29.68R HX 101
6HR MIN TEMP:  98; 6HR MAX TEMP: 114;

NEEDLES        PTCLDY   105  49  15 W9        29.74S HX 102
6HR MIN TEMP: 105; 6HR MAX TEMP: 118;

$$

NVZ020-UTZ003-290700-
SOUTHERN NEVADA-UTAH

CITY           SKY/WX    TMP DP  RH WIND       PRES   REMARKS
LAS VEGAS      MOCLDY   102  43  13 S9        29.83F
6HR MIN TEMP: 102; 6HR MAX TEMP: 115;

SALT LAKE CITY CLEAR     79  44  28 SW6       30.03S
6HR MIN TEMP:  79; 6HR MAX TEMP: 101;

$$

NMZ009-TXZ055-290700-
NEW MEXICO-WEST TEXAS

CITY           SKY/WX    TMP DP  RH WIND       PRES   REMARKS
ALBUQUERQUE    PTCLDY    78  46  32 SE7       30.13R
6HR MIN TEMP:  78; 6HR MAX TEMP:  91;

EL PASO        PTCLDY    85  55  35 SE13      30.05R
6HR MIN TEMP:  85; 6HR MAX TEMP:  97;

$$


........................KEY........................
SKY/WX - SKY CONDITION/WEATHER
TMP    - TEMPERATURE IN FAHRENHEIT
DP     - DEW POINT IN FAHRENHEIT
RH     - RELATIVE HUMIDITY IN PERCENT
WIND   - DIRECTION AND SPEED IN MILES PER HOUR (MPH)
VRB    - VARIABLE WIND DIRECTION
PRES   - MEAN SEA LEVEL PRESSURE IN INCHES OF MERCURY
         F - FALLING PRESSURE   R - RISING PRESSURE
         S - STEADY PRESSURE
VSB    - VISIBILITY IN MILES
HX     - HEAT INDEX IN FAHRENHEIT
WCI    - WIND CHILL INDEX IN FAHRENHEIT
TC     - TEMPERATURE IN CELSIUS WHICH IS ALSO KNOWN AS
         TEMPERATURE IN CENTIGRADE
AFB    - AIR FORCE BASE
         LUKE AFB IS LUKE AIR FORCE BASE
         DAVIS-MONTHAN IS DAVIS-MONTHAN AIR FORCE BASE
NAS    - NAVAL AIR STATION
         EL CENTRO NAS IS EL CENTRO NAVAL AIR STATION
N/A    - NOT AVAILABLE




USA.gov is the U.S. government's official web portal to all federal, state and local government web resources and services.